Meteo Giornale » Osservazioni meteo Italia » Palermo-Punta Raisi

ore: 02:20 - Osservazioni Meteo Palermo-Punta Raisi
Lat. 38° 11' N Lon. 13° 6' E Alt. 21 metri s.l.m.

sereno Europe/Rome

18 °C

Sereno

Temp. 24 Ore

17 °C

24 °C

Nord

5.5 Km/h

Dew point 14 °C

Umidità 77 %

Visibilità  10 Km

Il sole sorge alle ore 06:57

Il sole tramonta alle ore 19:00

Data e Ora Cielo e Fenomeni T °C DP °C Um. % Pres. hPa Vis. km Vento km/h
Oggi h: 02:20 sereno Sereno 18 14 77 1018 10 N 5.5
Oggi h: 01:50 sereno Sereno 18 14 77 1018 10 N 5.5
Oggi h: 01:20 sereno Sereno 18 14 77 1018 10 S 7.4
Oggi h: 00:50 sereno Sereno 19 14 72 1018 10 S/SE 7.4
Oggi h: 00:20 sereno Sereno 19 14 72 1018 10 N 5.5
Ieri h: 23:50 sereno Sereno 18 15 82 1018 10 S/SE 9.3
Ieri h: 23:20 sereno Sereno 20 15 72 1018 10 E 9.3
Ieri h: 22:50 sereno Sereno 20 16 77 1018 10 E/NE 14.8
Ieri h: 22:20 sereno Sereno 20 16 77 1018 10 E/NE 11.1
Ieri h: 21:50 sereno Sereno 20 15 72 1018 10 E 9.3
Ieri h: 21:20 sereno Sereno 21 15 68 1018 10 NE 22.2
Ieri h: 20:50 sereno Sereno 21 15 68 1018 10 NE 22.2
Ieri h: 20:20 sereno Sereno 22 16 68 1018 10 N/NE 24
Ieri h: 19:50 sereno Sereno 21 15 68 1017 10 NE 25.9
Ieri h: 19:20 sereno Sereno 22 16 68 1017 10 NE 27.8
Ieri h: 18:50 sereno Sereno 22 16 68 1017 10 NE 27.8
Ieri h: 17:50 sereno Sereno 22 15 64 1017 10 NE 33.3
Ieri h: 17:20 sereno Sereno 23 15 60 1017 10 NE 33.3
Ieri h: 16:50 sereno Sereno 23 16 64 1017 10 NE 33.3
Ieri h: 16:20 sereno Sereno 23 15 60 1017 10 NE 31.5
Ieri h: 15:50 sereno Sereno 23 16 64 1017 10 NE 33.3
Ieri h: 15:20 sereno Sereno 23 16 64 1017 10 NE 29.6
Ieri h: 14:50 sereno Sereno 23 16 64 1017 10 N/NE 18.5
Ieri h: 14:20 sereno Sereno 23 16 64 1017 10 N/NE 18.5
Ieri h: 13:50 sereno Sereno 23 15 60 1017 10 N/NE 14.8
Ieri h: 13:20 sereno Sereno 24 14 53 1017 10 N 9.3
Ieri h: 12:50 sereno Sereno 23 15 60 1017 10 NO 7.4
Ieri h: 12:20 sereno Sereno 23 15 60 1017 10 N 5.5
Ieri h: 11:50 sereno Sereno 22 16 68 1016 10 O 7.4
Ieri h: 11:20 sereno Sereno 21 15 68 1016 10 O/SO 9.3
Ieri h: 10:50 sereno Sereno 21 15 68 1016 10 NO 7.4
Ieri h: 10:20 nuvoloso Nuvoloso 20 15 72 1016 10 N 5.5
Ieri h: 09:50 poco_nuvoloso Poco Nuvoloso 20 15 72 1018 10 N 7.4
Ieri h: 09:20 poco_nuvoloso Poco Nuvoloso 19 15 77 1017 10 N 7.4
Ieri h: 08:50 poco_nuvoloso Poco Nuvoloso 20 16 77 1017 10 S/SO 24
Ieri h: 08:20 nuvoloso Nuvoloso 21 12 56 1016 10 E/NE 44.4
Ieri h: 07:50 nuvoloso_temporali Temporale con Pioggia Debole 19 14 72 1015 9 E 44.4
Ieri h: 07:20 nuvoloso_temporali Temporale con Pioggia Debole 17 16 93 1019 5 N/NE 22.2
Ieri h: 06:50 nuvoloso_temporali Temporale con Pioggia 18 17 93 1020 5 NO 29.6
Ieri h: 06:20 nuvoloso_temporali Temporale con Pioggia 19 16 82 1019 5 N 42.6
Ieri h: 05:50 coperto_temporali Temporale 23 17 68 1016 8 O 18.5
Ieri h: 05:20 nuvoloso Nuvoloso 22 16 68 1015 9 SE 11.1
Ieri h: 04:50 poco_nuvoloso Poco Nuvoloso 22 16 68 1017 10 NE 25.9
Ieri h: 04:20 poco_nuvoloso Poco Nuvoloso 21 15 68 1017 10 E/SE 9.3
Ieri h: 03:50 poco_nuvoloso Poco Nuvoloso 22 16 68 1018 10 O/SO 27.8
Ieri h: 03:20 poco_nuvoloso Poco Nuvoloso 22 16 68 1018 10 N/NO 7.4
Ieri h: 02:50 poco_nuvoloso Poco Nuvoloso 22 16 68 1018 10 N 7.4